Davenport, IA

7:20 AM CDT on July 22, 2017 (GMT -0500)
Davenport Municipal

Weather History for KDVN - April, 2014

Change the Weather History Date:

Friday, April 18, 2014

  Actual Average Record
Temperature  
Mean Temperature 45 °F 51 °F  
Max Temperature 63 °F 63 °F 88 °F (2002)
Min Temperature 26 °F 40 °F 26 °F (2001)
Degree Days  
Heating Degree Days 20 14  
Month to date heating degree days 345 304  
Since 1 July heating degree days 7245 6162  
Cooling Degree Days 0 0  
Month to date cooling degree days 3 0  
Year to date cooling degree days 3 0  
Moisture  
Dew Point 30 °F    
Average Humidity 59    
Maximum Humidity 92    
Minimum Humidity 25    
Precipitation  
Precipitation 0.00 in 0.12 in 1.08 in (2013)
Month to date precipitation 1.56 1.85  
Year to date precipitation 4.87 6.90  
Snow  
Snow 0.00 in - - ()
Month to date snowfall T  
Since 1 July snowfall 50.2  
Snow Depth 0.00 in    
Sea Level Pressure  
Sea Level Pressure 30.34 in    
Wind  
Wind Speed 7 mph (NNE)    
Max Wind Speed 22 mph    
Max Gust Speed 29 mph    
Visibility 8 miles    
Events      
T = Trace of Precipitation, MM = Missing Value Source: NWS Daily Summary

Daily Weather History Graph

Daily Weather History Graph

Search for Another Location

Airport or City:

Trip Planner

Search our weather history database for the weather conditions in past years. The results will help you decide how hot, cold, wet, or windy it might be!

Date:

Astronomy

Apr. 18, 2014 Rise Set
Actual Time 6:17 AM CDT 7:46 PM CDT
Civil Twilight 5:48 AM CDT 8:15 PM CDT
Nautical Twilight 5:13 AM CDT 8:50 PM CDT
Astronomical Twilight 4:36 AM CDT 9:27 PM CDT
Moon 11:33 PM CDT (4/18) 8:38 AM CDT (4/18)
Length of Visible Light 14h 26m
Length of Day
13h 28m
Waning Gibbous, 87% of the Moon is Illuminated
Apr 18
Waning Gibbous
Apr 22
Last Quarter
Apr 29
New
May 6
First Quarter
May 14
Full

Hourly Weather History & Observations

Time (CDT) Temp. Windchill Dew Point Humidity Pressure Visibility Wind Dir Wind Speed Gust Speed Precip Events Conditions
12:52 AM 36.0 °F 29.0 °F 30.9 °F 82% 30.32 in 9.0 mi NNW 9.2 mph - N/A   Clear
1:52 AM 34.0 °F 26.6 °F 30.9 °F 89% 30.33 in 8.0 mi NNW 9.2 mph - N/A   Clear
2:52 AM 33.1 °F 26.1 °F 30.0 °F 89% 30.32 in 6.0 mi NNW 8.1 mph - N/A   Clear
3:52 AM 30.0 °F 24.1 °F 28.0 °F 92% 30.32 in 5.0 mi North 5.8 mph - N/A   Clear
4:52 AM 30.9 °F 26.2 °F 28.0 °F 89% 30.33 in 5.0 mi North 4.6 mph - N/A   Clear
5:52 AM 28.9 °F 22.8 °F 26.1 °F 89% 30.35 in 4.0 mi NNW 5.8 mph - N/A   Clear
6:31 AM 28.0 °F 22.8 °F 26.1 °F 92% 30.34 in 2.5 mi NNW 4.6 mph - N/A   Clear
6:52 AM 30.0 °F 25.2 °F 28.0 °F 92% 30.37 in 2.5 mi NNW 4.6 mph - N/A   Clear
7:25 AM 32.0 °F 26.4 °F 28.9 °F 88% 30.36 in 3.0 mi NNW 5.8 mph - N/A   Clear
7:52 AM 36.0 °F 31.1 °F 32.0 °F 86% 30.38 in 4.0 mi North 5.8 mph - N/A   Clear
8:52 AM 41.0 °F 35.8 °F 34.0 °F 76% 30.39 in 6.0 mi NE 8.1 mph - N/A   Haze
9:52 AM 45.0 °F 40.6 °F 35.1 °F 68% 30.39 in 8.0 mi ENE 8.1 mph - N/A   Clear
10:52 AM 48.9 °F - 34.0 °F 56% 30.39 in 9.0 mi Variable 5.8 mph - N/A   Clear
11:52 AM 52.0 °F - 33.1 °F 49% 30.39 in 9.0 mi ENE 4.6 mph - N/A   Clear
12:52 PM 55.9 °F - 33.1 °F 42% 30.36 in 10.0 mi Calm Calm - N/A   Clear
1:52 PM 57.9 °F - 28.0 °F 32% 30.35 in 10.0 mi Calm Calm - N/A   Clear
2:52 PM 60.1 °F - 28.9 °F 31% 30.33 in 10.0 mi Calm Calm - N/A   Clear
4:52 PM 62.1 °F - 27.0 °F 26% 30.30 in 10.0 mi ESE 5.8 mph - N/A   Clear
5:52 PM 61.0 °F - 27.0 °F 27% 30.28 in 10.0 mi East 6.9 mph - N/A   Clear
6:52 PM 60.1 °F - 28.9 °F 31% 30.29 in 10.0 mi SE 4.6 mph - N/A   Clear
7:52 PM 53.1 °F - 30.0 °F 41% 30.29 in 10.0 mi ENE 8.1 mph - N/A   Clear
8:52 PM 51.1 °F - 30.0 °F 44% 30.29 in 10.0 mi ENE 9.2 mph - N/A   Clear
10:52 PM 48.9 °F - 32.0 °F 52% 30.29 in 10.0 mi East 12.7 mph - N/A   Clear
11:52 PM 46.9 °F - 36.0 °F 66% 30.32 in 8.0 mi ESE 12.7 mph - N/A   Clear